This demonstration page uses our WeatherBlox Daily Observations layout. Learn more.

Left ArrowRight Arrow

38.20091, -84.87328

Hourly Observations for July 6, 2020

Temp ( °F °C ) Dew Point ( °F °C ) Humidity (%) Winds ( mph kmh ) Pressure ( in mb ) Visibility ( mi km ) Precip ( " mm )
12:53 am 00:53 Clear 77 25 67 19.4 71 71 Calm 29.96 1014 10 16 0.00 0.00
1:53 am 01:53 Mostly Clear 75 23.9 67 19.4 76 76 SSE 3 6 29.95 1014 10 16 0.00 0.00
2:53 am 02:53 Clear 73 22.8 68 20 84 84 Calm 29.93 1014 10 16 0.00 0.00
3:53 am 03:53 Clear 73 22.8 68 20 84 84 Calm 29.93 1014 10 16 0.00 0.00
4:53 am 04:53 Clear 72 22.2 68 20 87 87 Calm 29.95 1014 10 16 0.00 0.00
5:53 am 05:53 Cloudy 72 22.2 68 20 87 87 SW 3 6 29.97 1015 10 16 0.00 0.00
6:53 am 06:53 Sunny 72 22.2 68 20 87 87 Calm 29.98 1015 10 16 0.00 0.00
7:53 am 07:53 Mostly Sunny 74 23.3 68 20 82 82 Calm 30.00 1016 10 16 0.00 0.00
8:53 am 08:53 Sunny 80 26.7 69 20.6 69 69 Calm 30.01 1016 10 16 0.00 0.00
9:53 am 09:53 Sunny 83 28.3 68 20 61 61 Calm 30.02 1017 10 16 0.00 0.00
10:53 am 10:53 Sunny 85 29.4 68 20 57 57 VRB 3 6 30.02 1017 10 16 0.00 0.00
11:53 am 11:53 Sunny 88 31.1 70 21.1 55 55 VRB 7 11 30.02 1017 10 16 0.00 0.00
12:53 pm 12:53 Sunny 89 31.7 70 21.1 53 53 Calm 30.01 1016 10 16 0.00 0.00
1:53 pm 13:53 Sunny 90 32.2 71 21.7 54 54 VRB 5 7 29.99 1016 10 16 0.00 0.00
2:53 pm 14:53 Mostly Cloudy 91 32.8 71 21.7 52 52 VRB 6 9 29.98 1015 10 16 0.00 0.00
3:53 pm 15:53 Sunny 93 33.9 71 21.7 49 49 VRB 5 7 29.96 1015 10 16 0.00 0.00
4:53 pm 16:53 Mostly Sunny 92 33.3 70 21.1 49 49 VRB 7 11 29.94 1014 10 16 0.00 0.00
4:59 pm 16:59 Partly Cloudy with Thunderstorms 93 33.9 70 21.1 47 47 WSW 7 11 29.91 1013 10 16 0.00 0.00
5:20 pm 17:20 Partly Cloudy with Nearby Thunderstorms 92 33.3 70 21.1 49 49 WSW 6 9 29.92 1013 10 16 0.00 0.00
5:50 pm 17:50 Partly Cloudy with Thunderstorms 91 33 70 21 49 49 VRB 3 6 29.93 1013 10 16 0.00 0.00
5:53 pm 17:53 Partly Cloudy with Thunderstorms 93 33.9 70 21.1 47 47 NNE 7 11 29.95 1014 10 16 0.00 0.00
6:15 pm 18:15 Mostly Cloudy with Nearby Thunderstorms 85 29.4 64 17.8 50 50 NE 9 15 29.94 1014 10 16 0.00 0.00
6:23 pm 18:23 Mostly Cloudy with Thunderstorms 85 29.4 64 17.8 50 50 NNE 7 11 29.94 1014 10 16 0.00 0.00
6:36 pm 18:36 Mostly Sunny 87 30.6 66 18.9 50 50 Calm 29.93 1014 10 16 0.00 0.00
6:53 pm 18:53 Sunny 86 30 67 19.4 53 53 WNW 3 6 29.95 1014 10 16 0.00 0.00
7:53 pm 19:53 Sunny 83 28.3 66 18.9 57 57 N 6 9 29.96 1015 10 16 0.00 0.00
8:53 pm 20:53 Sunny 78 25.6 66 18.9 67 67 Calm 29.96 1015 10 16 0.00 0.00
9:53 pm 21:53 Clear 75 23.9 66 18.9 74 74 E 6 9 29.98 1015 10 16 0.00 0.00
10:53 pm 22:53 Partly Cloudy 76 24.4 68 20 77 77 ESE 5 7 30.00 1016 10 16 0.00 0.00
11:53 pm 23:53 Clear 74 23.3 67 19.4 79 79 SW 5 7 30.00 1016 10 16 0.00 0.00

Powered by AerisWeather